This demonstration page uses our WeatherBlox Daily Observations layout. Learn more.

Left ArrowRight Arrow

40.92945, -100.16068

Hourly Observations for October 26, 2018

Temp ( °F °C ) Dew Point ( °F °C ) Humidity (%) Winds ( mph kmh ) Pressure ( in mb ) Visibility ( mi km ) Precip ( " mm )
12:15 am 00:15 Clear 41 4.8 39 3.9 94 94 Calm 29.97 1015 10 16.0934 0 0
12:35 am 00:35 Clear 40 4.3 38 3.2 93 93 W 5 7 29.97 1015 10 16.0934 0 0
12:55 am 00:55 Clear 39 4.1 38 3.2 94 94 W 5 7 29.97 1015 10 16.0934 0 0
1:15 am 01:15 Clear 39 3.9 37 3 94 94 W 6 9 29.97 1015 10 16.0934 0 0
1:35 am 01:35 Clear 37 2.6 35 1.7 94 94 W 3 6 30 1016 7 11.26538 0 0
1:55 am 01:55 Partly Cloudy 37 2.6 35 1.7 94 94 WNW 6 9 30 1016 7 11.26538 0 0
2:15 am 02:15 Mostly Cloudy 39 4 38 3.1 94 94 WNW 7 11 29.97 1015 7 11.26538 0 0
2:35 am 02:35 Clear 38 3.6 37 2.8 95 95 WNW 7 11 29.97 1015 10 16.0934 0 0
2:55 am 02:55 Partly Cloudy 39 3.8 37 2.9 94 94 WNW 8 13 29.97 1015 10 16.0934 0 0
3:15 am 03:15 Cloudy 41 5 39 3.9 93 93 WNW 9 15 29.97 1015 10 16.0934 0 0
3:35 am 03:35 Cloudy 43 6 40 4.5 90 90 WNW 7 11 29.94 1014 10 16.0934 0 0
3:55 am 03:55 Cloudy 43 6.3 40 4.3 87 87 WNW 12 19 29.94 1014 10 16.0934 0 0
4:15 am 04:15 Cloudy 44 6.5 40 4.4 87 87 WNW 10 17 29.94 1014 10 16.0934 0 0
4:35 am 04:35 Cloudy 44 6.6 40 4.5 87 87 WNW 9 15 29.94 1014 10 16.0934 0 0
4:55 am 04:55 Cloudy 44 6.8 40 4.6 86 86 WNW 6 9 29.94 1014 10 16.0934 0 0
5:15 am 05:15 Cloudy 44 6.7 40 4.6 87 87 WNW 7 11 29.94 1014 10 16.0934 0 0
5:35 am 05:35 Cloudy 44 6.8 40 4.7 87 87 WNW 7 11 29.94 1014 10 16.0934 0 0
5:55 am 05:55 Cloudy 45 7 41 4.8 86 86 WNW 7 11 29.94 1014 10 16.0934 0 0
6:15 am 06:15 Cloudy 45 7 41 4.8 86 86 WNW 7 11 29.94 1014 10 16.0934 0 0
6:35 am 06:35 Cloudy 45 7 41 5 87 87 WNW 6 9 29.97 1015 10 16.0934 0 0
6:55 am 06:55 Cloudy 45 7.2 41 5 86 86 W 7 11 29.97 1015 10 16.0934 0 0
7:15 am 07:15 Cloudy 45 7.3 41 5.2 87 87 WNW 6 9 29.97 1015 10 16.0934 0 0
7:35 am 07:35 Partly Cloudy 44 6.5 40 4.5 87 87 W 7 11 29.94 1014 10 16.0934 0 0
7:55 am 07:55 Mostly Cloudy 44 6.5 40 4.7 88 88 W 7 11 29.97 1015 10 16.0934 0 0
8:15 am 08:15 Mostly Cloudy 45 7 41 4.8 86 86 WNW 8 13 29.97 1015 10 16.0934 0 0
8:35 am 08:35 Mostly Cloudy 44 6.7 41 4.8 88 88 WNW 8 13 29.97 1015 10 16.0934 0 0
8:55 am 08:55 Partly Cloudy 44 6.9 41 4.8 87 87 W 7 11 29.97 1015 10 16.0934 0 0
9:15 am 09:15 Sunny 47 8.5 43 6 84 84 WNW 9 15 29.97 1015 10 16.0934 0 0
9:35 am 09:35 Sunny 49 9.5 44 6.4 81 81 NW 7 11 30 1016 10 16.0934 0 0
9:55 am 09:55 Sunny 51 10.7 44 6.9 78 78 WNW 9 15 29.97 1015 10 16.0934 0 0
10:15 am 10:15 Sunny 52 11.3 44 6.4 72 72 NW 13 20 29.97 1015 10 16.0934 0 0
10:35 am 10:35 Sunny 54 12.3 44 6.6 68 68 WNW 10 17 29.97 1015 10 16.0934 0 0
10:55 am 10:55 Sunny 57 13.7 45 7.1 65 65 NW 7 11 29.94 1014 10 16.0934 0 0
11:15 am 11:15 Sunny 58 14.5 46 7.5 63 63 W 10 17 29.94 1014 10 16.0934 0 0
11:35 am 11:35 Sunny 60 15.3 45 7.1 58 58 WNW 12 19 29.94 1014 10 16.0934 0 0
11:55 am 11:55 Sunny 61 16.1 45 7.4 57 57 W 10 17 29.94 1014 10 16.0934 0 0
12:15 pm 12:15 Sunny 62 16.7 43 6.3 50 50 WNW 9 15 29.88 1012 10 16.0934 0 0
12:35 pm 12:35 Sunny 64 17.6 41 5 44 44 W 10 17 29.88 1012 10 16.0934 0 0
12:55 pm 12:55 Sunny 65 18.2 39 3.9 39 39 WNW 13 20 29.88 1012 10 16.0934 0 0
1:15 pm 13:15 Sunny 66 18.9 40 4.3 38 38 WNW 14 22 29.85 1011 10 16.0934 0 0
1:35 pm 13:35 Sunny 67 19.2 40 4.7 39 39 WNW 10 17 29.83 1010 10 16.0934 0 0
1:55 pm 13:55 Sunny 67 19.4 41 4.9 39 39 NW 14 22 29.83 1010 10 16.0934 0 0
2:15 pm 14:15 Sunny 67 19.7 40 4.7 37 37 WNW 14 22 29.8 1009 10 16.0934 0 0
2:35 pm 14:35 Sunny 68 20.1 39 3.9 35 35 WNW 15 24 29.8 1009 10 16.0934 0 0
2:55 pm 14:55 Sunny 69 20.4 37 2.5 31 31 NW 16 26 29.8 1009 10 16.0934 0 0
3:15 pm 15:15 Sunny 68 20.2 34 1.1 28 28 NNW 21 33 29.8 1009 10 16.0934 0 0
3:35 pm 15:35 Sunny 69 20.5 34 1.3 28 28 NNW 18 30 29.8 1009 10 16.0934 0 0
3:55 pm 15:55 Sunny 69 20.5 35 1.4 28 28 NW 17 28 29.8 1009 10 16.0934 0 0
4:15 pm 16:15 Sunny 69 20.4 34 1.1 28 28 NNW 20 31 29.8 1009 10 16.0934 0 0
4:35 pm 16:35 Sunny 68 20 34 1.1 28 28 NNW 12 19 29.8 1009 10 16.0934 0 0
4:55 pm 16:55 Sunny 68 20 35 1.8 30 30 NNW 13 20 29.8 1009 10 16.0934 0 0
5:15 pm 17:15 Partly Cloudy 68 20 34 1.3 29 29 N 10 17 29.8 1009 10 16.0934 0 0
5:35 pm 17:35 Partly Cloudy 67 19.3 34 1.3 30 30 NNW 14 22 29.8 1009 10 16.0934 0 0
5:55 pm 17:55 Partly Cloudy 65 18.5 34 0.9 31 31 N 10 17 29.83 1010 10 16.0934 0 0
6:15 pm 18:15 Partly Cloudy 63 17.2 35 1.5 35 35 N 8 13 29.83 1010 10 16.0934 0 0
6:35 pm 18:35 Sunny 59 15.2 35 1.9 41 41 N 6 9 29.85 1011 10 16.0934 0 0
6:55 pm 18:55 Clear 57 14 35 1.5 43 43 N 7 11 29.85 1011 10 16.0934 0 0
7:15 pm 19:15 Clear 54 12.1 35 1.9 50 50 N 6 9 29.91 1013 10 16.0934 0 0
7:35 pm 19:35 Clear 53 11.6 36 2.3 53 53 N 5 7 29.91 1013 10 16.0934 0 0
7:55 pm 19:55 Partly Cloudy 53 11.5 35 1.8 52 52 N 3 6 29.91 1013 10 16.0934 0 0
8:15 pm 20:15 Cloudy 50 10.1 37 3 62 62 N 3 6 29.91 1013 10 16.0934 0 0
8:35 pm 20:35 Partly Cloudy 50 9.8 38 3.5 65 65 Calm 29.91 1013 10 16.0934 0 0
8:55 pm 20:55 Clear 49 9.7 37 2.8 62 62 W 3 6 29.91 1013 10 16.0934 0 0
9:15 pm 21:15 Clear 48 8.9 38 3.2 68 68 WNW 3 6 29.94 1014 10 16.0934 0 0
9:35 pm 21:35 Clear 49 9.4 39 4.1 70 70 W 7 11 29.91 1013 10 16.0934 0 0
9:55 pm 21:55 Clear 49 9.3 39 3.7 68 68 WNW 6 9 29.97 1015 10 16.0934 0 0
10:15 pm 22:15 Clear 48 9.1 38 3.6 69 69 W 6 9 29.97 1015 10 16.0934 0 0
10:35 pm 22:35 Clear 47 8.4 38 3.1 70 70 W 7 11 29.97 1015 10 16.0934 0 0
10:55 pm 22:55 Clear 46 7.5 37 2.5 71 71 W 3 6 29.97 1015 10 16.0934 0 0
11:15 pm 23:15 Clear 45 7.1 36 2.1 71 71 W 7 11 29.97 1015 10 16.0934 0 0
11:35 pm 23:35 Clear 46 7.6 36 2.1 68 68 W 6 9 29.97 1015 10 16.0934 0 0
11:55 pm 23:55 Clear 45 7.1 36 2 70 70 W 6 9 29.97 1015 10 16.0934 0 0

Powered by AerisWeather